Location: The Saddle
(36.8333°N, 80.3417°W)
Time: 08:51:19
(UTC-05:00)

S-56A Canister/Altair - Pass Details

Date: 12 December 2023
Orbit: 640 x 2488 km, 38.9° (Epoch: 25 February)

Event Time Altitude Azimuth Distance (km) Brightness Sun altitude
Rises 14:41:20 0° 283° (WNW) 2,962 10.8 20.9°
Reaches altitude 10° 14:43:43 10° 276° (W) 2,023 10.2 20.6°
Maximum altitude 14:47:54 40° 206° (SSW) 967 9.6 20.1°
Drops below altitude 10° 14:52:36 10° 137° (SE) 2,278 10.1 19.5°
Sets 14:55:26 0° 130° (SE) 3,392 10.9 19.2°
